Location: Solon
(41.3849°N, 81.4081°W)
Time: 15:16:02
(UTC-05:00)

CZ-2C R/B - Visible Passes

Search period start: 26 November 2014 00:00
Search period end: 06 December 2014 00:00
Orbit: 704 x 910 km, 98.1° (Epoch: 26 November)

Date Brightness Start Highest point End Pass type
(mag) Time Alt. Az. Time Alt. Az. Time Alt. Az.
27 Nov 5.6 17:37:40 10° NW 17:39:47 13° WNW 17:41:56 10° W visible
01 Dec 5.6 17:39:23 10° NW 17:41:23 13° WNW 17:43:25 10° W visible
05 Dec 5.6 17:41:05 10° NW 17:42:59 12° WNW 17:44:55 10° W visible
